Time,TemperatureF,DewpointF,PressureIn,WindDirection,WindDirectionDegrees,WindSpeedMPH,WindSpeedGustMPH,Humidity,HourlyPrecipIn,Conditions,Clouds,dailyrainin,SoftwareType,DateUTC
2013-05-26 00:00:00,56.1,40.6,30.21,NW,304,0.0,1.0,56,0.00,,---,0.00,VWS V14.01,2013-05-26 04:00:00,
2013-05-26 00:10:00,56.2,40.3,30.21,NW,304,0.0,0.0,55,0.00,,---,0.00,VWS V14.01,2013-05-26 04:10:00,
2013-05-26 00:25:00,56.0,40.1,30.21,NE,38,0.0,2.0,55,0.00,,---,0.00,VWS V14.01,2013-05-26 04:25:00,
2013-05-26 00:30:00,55.9,40.0,30.21,NE,38,0.0,2.0,55,0.00,,---,0.00,VWS V14.01,2013-05-26 04:30:00,
2013-05-26 00:40:00,55.7,39.8,30.22,NNW,346,1.0,2.0,55,0.00,,---,0.00,VWS V14.01,2013-05-26 04:40:00,
2013-05-26 00:55:00,55.8,39.4,30.22,NE,46,0.0,5.0,54,0.00,,---,0.00,VWS V14.01,2013-05-26 04:55:00,
2013-05-26 01:00:00,55.9,40.0,30.22,NE,45,0.0,5.0,55,0.00,,---,0.00,VWS V14.01,2013-05-26 05:00:00,
2013-05-26 01:10:00,55.9,40.5,30.22,NE,45,0.0,1.0,56,0.00,,---,0.00,VWS V14.01,2013-05-26 05:10:00,
2013-05-26 01:25:00,55.6,40.2,30.21,NNE,30,0.0,1.0,56,0.00,,---,0.00,VWS V14.01,2013-05-26 05:25:00,
2013-05-26 01:30:00,55.4,40.0,30.21,NNE,30,0.0,1.0,56,0.00,,---,0.00,VWS V14.01,2013-05-26 05:30:00,
2013-05-26 01:40:00,55.0,40.1,30.21,NNW,346,0.0,2.0,57,0.00,,---,0.00,VWS V14.01,2013-05-26 05:40:00,
2013-05-26 01:55:00,54.5,40.0,30.21,North,360,0.0,2.0,58,0.00,,---,0.00,VWS V14.01,2013-05-26 05:55:00,
2013-05-26 02:00:00,54.4,40.0,30.21,NNE,22,0.0,2.0,58,0.00,,---,0.00,VWS V14.01,2013-05-26 06:00:00,
2013-05-26 02:10:00,54.3,39.8,30.21,NNE,23,0.0,1.0,58,0.00,,---,0.00,VWS V14.01,2013-05-26 06:10:00,
2013-05-26 02:25:00,54.2,40.2,30.21,NE,38,0.0,3.0,59,0.00,,---,0.00,VWS V14.01,2013-05-26 06:25:00,
2013-05-26 02:30:00,54.1,40.1,30.21,NE,37,0.0,3.0,59,0.00,,---,0.00,VWS V14.01,2013-05-26 06:30:00,
2013-05-26 02:40:00,53.8,39.8,30.21,NE,37,0.0,0.0,59,0.00,,---,0.00,VWS V14.01,2013-05-26 06:40:00,
2013-05-26 02:55:00,53.5,40.0,30.21,NE,37,0.0,1.0,60,0.00,,---,0.00,VWS V14.01,2013-05-26 06:55:00,
2013-05-26 03:00:00,53.3,40.2,30.21,NE,37,0.0,1.0,61,0.00,,---,0.00,VWS V14.01,2013-05-26 07:00:00,
2013-05-26 03:10:00,52.9,40.2,30.21,NE,37,0.0,0.0,62,0.00,,---,0.00,VWS V14.01,2013-05-26 07:10:00,
2013-05-26 03:25:00,52.5,39.9,30.21,NNE,30,0.0,1.0,62,0.00,,---,0.00,VWS V14.01,2013-05-26 07:25:00,
2013-05-26 03:30:00,52.4,40.2,30.21,NNE,30,0.0,1.0,63,0.00,,---,0.00,VWS V14.01,2013-05-26 07:30:00,
2013-05-26 03:40:00,52.3,40.1,30.21,NNE,29,0.0,0.0,63,0.00,,---,0.00,VWS V14.01,2013-05-26 07:40:00,
2013-05-26 03:55:00,51.9,39.7,30.21,NNE,30,0.0,0.0,63,0.00,,---,0.00,VWS V14.01,2013-05-26 07:55:00,
2013-05-26 04:00:00,51.8,40.0,30.22,NNE,30,0.0,0.0,64,0.00,,---,0.00,VWS V14.01,2013-05-26 08:00:00,
2013-05-26 04:10:00,51.6,39.8,30.22,NNE,30,0.0,0.0,64,0.00,,---,0.00,VWS V14.01,2013-05-26 08:10:00,
2013-05-26 04:25:00,51.1,40.5,30.22,NNE,30,0.0,1.0,67,0.00,,---,0.00,VWS V14.01,2013-05-26 08:25:00,
2013-05-26 04:30:00,50.9,40.7,30.22,NNE,29,0.0,1.0,68,0.00,,---,0.00,VWS V14.01,2013-05-26 08:30:00,
2013-05-26 04:40:00,50.4,40.2,30.22,NNE,29,0.0,0.0,68,0.00,,---,0.00,VWS V14.01,2013-05-26 08:40:00,
2013-05-26 04:55:00,49.7,40.0,30.22,NNE,30,0.0,0.0,69,0.00,,---,0.00,VWS V14.01,2013-05-26 08:55:00,
2013-05-26 05:00:00,49.5,39.8,30.23,NNE,29,0.0,0.0,69,0.00,,---,0.00,VWS V14.01,2013-05-26 09:00:00,
2013-05-26 05:10:00,49.4,40.0,30.22,NNE,30,0.0,0.0,70,0.00,,---,0.00,VWS V14.01,2013-05-26 09:10:00,
2013-05-26 05:25:00,49.7,40.3,30.23,NNE,30,0.0,1.0,70,0.00,,---,0.00,VWS V14.01,2013-05-26 09:25:00,
2013-05-26 05:30:00,49.9,39.8,30.23,NNW,346,0.0,1.0,68,0.00,,---,0.00,VWS V14.01,2013-05-26 09:30:00,
2013-05-26 05:40:00,50.0,40.2,30.23,NE,46,2.0,2.0,69,0.00,,---,0.00,VWS V14.01,2013-05-26 09:40:00,
2013-05-26 05:55:00,50.3,40.2,30.23,NE,46,0.0,2.0,68,0.00,,---,0.00,VWS V14.01,2013-05-26 09:55:00,
2013-05-26 06:00:00,50.4,39.9,30.24,NE,46,0.0,2.0,67,0.00,,---,0.00,VWS V15.00,2013-05-26 10:00:00,
2013-05-26 06:10:00,50.7,40.2,30.24,NE,47,0.0,1.0,67,0.00,,---,0.00,VWS V14.01,2013-05-26 10:10:00,
2013-05-26 06:25:00,51.2,40.6,30.24,NE,47,3.0,3.0,67,0.00,,---,0.00,VWS V14.01,2013-05-26 10:25:00,
2013-05-26 06:30:00,51.4,40.8,30.24,NE,46,0.0,3.0,67,0.00,,---,0.00,VWS V14.01,2013-05-26 10:30:00,
2013-05-26 06:40:00,51.8,40.8,30.25,NNE,30,1.0,2.0,66,0.00,,---,0.00,VWS V14.01,2013-05-26 10:40:00,
2013-05-26 06:55:00,52.4,41.0,30.25,East,80,0.0,2.0,65,0.00,,---,0.00,VWS V14.01,2013-05-26 10:55:00,
2013-05-26 07:00:00,52.5,40.7,30.26,NW,313,0.0,2.0,64,0.00,,---,0.00,VWS V15.00,2013-05-26 11:00:00,
2013-05-26 07:10:00,52.7,41.7,30.25,NW,313,0.0,2.0,66,0.00,,---,0.00,VWS V14.01,2013-05-26 11:10:00,
2013-05-26 07:25:00,53.3,40.6,30.25,NE,56,0.0,3.0,62,0.00,,---,0.00,VWS V14.01,2013-05-26 11:25:00,
2013-05-26 07:30:00,53.5,41.6,30.26,NE,55,0.0,3.0,64,0.00,,---,0.00,VWS V15.00,2013-05-26 11:30:00,
2013-05-26 07:40:00,53.9,41.2,30.26,NE,54,0.0,2.0,62,0.00,,---,0.00,VWS V14.01,2013-05-26 11:40:00,
2013-05-26 07:55:00,54.8,41.6,30.26,NNE,33,0.0,3.0,61,0.00,,---,0.00,VWS V14.01,2013-05-26 11:55:00,
2013-05-26 08:00:00,55.1,41.5,30.26,NE,37,0.0,5.0,60,0.00,,---,0.00,VWS V15.00,2013-05-26 12:00:00,
2013-05-26 08:10:00,55.5,41.4,30.26,North,9,0.0,2.0,59,0.00,,---,0.00,VWS V14.01,2013-05-26 12:10:00,
2013-05-26 08:25:00,56.1,42.0,30.27,NE,44,3.0,3.0,59,0.00,,---,0.00,VWS V14.01,2013-05-26 12:25:00,
2013-05-26 08:30:00,56.4,41.4,30.27,ENE,59,0.0,3.0,57,0.00,,---,0.00,VWS V15.00,2013-05-26 12:30:00,
2013-05-26 08:40:00,57.0,41.9,30.27,NW,321,2.0,4.0,57,0.00,,---,0.00,VWS V14.01,2013-05-26 12:40:00,
2013-05-26 08:55:00,58.0,42.4,30.27,ENE,67,0.0,4.0,56,0.00,,---,0.00,VWS V14.01,2013-05-26 12:55:00,
2013-05-26 09:00:00,58.4,43.2,30.27,ENE,74,2.0,4.0,57,0.00,,---,0.00,VWS V15.00,2013-05-26 13:00:00,
2013-05-26 09:10:00,59.0,42.4,30.27,NE,51,4.0,4.0,54,0.00,,---,0.00,VWS V14.01,2013-05-26 13:10:00,
2013-05-26 09:25:00,59.7,41.6,30.27,ENE,61,0.0,6.0,51,0.00,,---,0.00,VWS V14.01,2013-05-26 13:25:00,
2013-05-26 09:30:00,59.9,42.7,30.27,ENE,60,0.0,6.0,53,0.00,,---,0.00,VWS V15.00,2013-05-26 13:30:00,
2013-05-26 09:40:00,60.2,42.5,30.27,North,355,0.0,5.0,52,0.00,,---,0.00,VWS V14.01,2013-05-26 13:40:00,
2013-05-26 09:55:00,60.8,42.1,30.27,ENE,68,1.0,7.0,50,0.00,,---,0.00,VWS V14.01,2013-05-26 13:55:00,
2013-05-26 10:00:00,61.1,43.4,30.27,WNW,290,0.0,7.0,52,0.00,,---,0.00,VWS V15.00,2013-05-26 14:00:00,
2013-05-26 10:10:00,62.3,44.0,30.27,NNE,17,0.0,2.0,51,0.00,,---,0.00,VWS V14.01,2013-05-26 14:10:00,
2013-05-26 10:25:00,62.7,42.8,30.27,ENE,65,0.0,7.0,48,0.00,,---,0.00,VWS V14.01,2013-05-26 14:25:00,
2013-05-26 10:30:00,62.7,42.2,30.27,ESE,106,0.0,7.0,47,0.00,,---,0.00,VWS V15.00,2013-05-26 14:30:00,
2013-05-26 10:40:00,63.1,43.7,30.27,NNE,28,1.0,4.0,49,0.00,,---,0.00,VWS V14.01,2013-05-26 14:40:00,
2013-05-26 10:55:00,64.0,42.8,30.26,NNE,26,1.0,4.0,46,0.00,,---,0.00,VWS V14.01,2013-05-26 14:55:00,
2013-05-26 11:00:00,64.1,42.3,30.26,NW,320,0.0,4.0,45,0.00,,---,0.00,VWS V15.00,2013-05-26 15:00:00,
2013-05-26 11:10:00,64.3,42.5,30.26,WSW,254,0.0,6.0,45,0.00,,---,0.00,VWS V14.01,2013-05-26 15:10:00,
2013-05-26 11:25:00,65.2,42.8,30.26,NNW,330,1.0,6.0,44,0.00,,---,0.00,VWS V14.01,2013-05-26 15:25:00,
2013-05-26 11:30:00,65.2,42.8,30.25,ENE,67,0.0,6.0,44,0.00,,---,0.00,VWS V15.00,2013-05-26 15:30:00,
2013-05-26 11:40:00,65.4,43.5,30.25,ENE,60,0.0,6.0,45,0.00,,---,0.00,VWS V14.01,2013-05-26 15:40:00,
2013-05-26 11:55:00,66.7,46.4,30.25,ENE,62,0.0,6.0,48,0.00,,---,0.00,VWS V14.01,2013-05-26 15:55:00,
2013-05-26 12:00:00,66.9,43.7,30.25,NNE,22,4.0,6.0,43,0.00,,---,0.00,VWS V15.00,2013-05-26 16:00:00,
2013-05-26 12:11:00,66.7,42.3,30.24,ESE,111,1.0,5.0,41,0.00,,---,0.00,VWS V14.01,2013-05-26 16:11:00,
2013-05-26 12:26:00,67.1,43.9,30.24,North,355,0.0,6.0,43,0.00,,---,0.00,VWS V14.01,2013-05-26 16:26:00,
2013-05-26 12:30:00,67.5,44.2,30.24,North,360,0.0,6.0,43,0.00,,---,0.00,VWS V15.00,2013-05-26 16:30:00,
2013-05-26 12:41:00,67.7,44.4,30.24,East,92,1.0,5.0,43,0.00,,---,0.00,VWS V14.01,2013-05-26 16:41:00,
2013-05-26 12:56:00,68.4,44.4,30.23,NNE,29,0.0,5.0,42,0.00,,---,0.00,VWS V14.01,2013-05-26 16:56:00,
2013-05-26 13:00:00,68.5,45.2,30.23,South,189,1.0,5.0,43,0.00,,---,0.00,VWS V15.00,2013-05-26 17:00:00,
2013-05-26 13:11:00,69.4,46.6,30.23,WNW,284,0.0,4.0,44,0.00,,---,0.00,VWS V14.01,2013-05-26 17:11:00,
2013-05-26 13:26:00,70.1,47.2,30.22,NE,49,0.0,4.0,44,0.00,,---,0.00,VWS V14.01,2013-05-26 17:26:00,
2013-05-26 13:30:00,70.0,47.1,30.22,WNW,286,1.0,5.0,44,0.00,,---,0.00,VWS V15.00,2013-05-26 17:30:00,
2013-05-26 13:41:00,70.3,48.0,30.21,NE,46,0.0,3.0,45,0.00,,---,0.00,VWS V14.01,2013-05-26 17:41:00,
2013-05-26 13:56:00,70.8,47.2,30.21,SSE,163,1.0,5.0,43,0.00,,---,0.00,VWS V14.01,2013-05-26 17:56:00,
2013-05-26 14:00:00,70.8,47.8,30.20,ENE,71,0.0,5.0,44,0.00,,---,0.00,VWS V15.00,2013-05-26 18:00:00,
2013-05-26 14:11:00,71.1,48.7,30.19,West,266,1.0,5.0,45,0.00,,---,0.00,VWS V14.01,2013-05-26 18:11:00,
2013-05-26 14:26:00,71.5,46.6,30.19,WSW,246,0.0,5.0,41,0.00,,---,0.00,VWS V14.01,2013-05-26 18:26:00,
2013-05-26 14:30:00,71.8,46.9,30.19,NE,34,2.0,5.0,41,0.00,,---,0.00,VWS V15.00,2013-05-26 18:30:00,
2013-05-26 14:41:00,71.0,44.8,30.19,NW,307,1.0,6.0,39,0.00,,---,0.00,VWS V14.01,2013-05-26 18:41:00,
2013-05-26 14:56:00,71.7,45.5,30.19,NW,312,1.0,6.0,39,0.00,,---,0.00,VWS V14.01,2013-05-26 18:56:00,
2013-05-26 15:00:00,71.9,44.9,30.19,ENE,63,0.0,6.0,38,0.00,,---,0.00,VWS V15.00,2013-05-26 19:00:00,
2013-05-26 15:11:00,71.8,46.9,30.19,West,263,0.0,5.0,41,0.00,,---,0.00,VWS V14.01,2013-05-26 19:11:00,
2013-05-26 15:26:00,71.3,45.1,30.19,East,90,0.0,7.0,39,0.00,,---,0.00,VWS V14.01,2013-05-26 19:26:00,
2013-05-26 15:30:00,71.3,45.1,30.19,NNE,32,0.0,7.0,39,0.00,,---,0.00,VWS V15.00,2013-05-26 19:30:00,
2013-05-26 15:41:00,72.1,45.1,30.18,NNW,331,1.0,5.0,38,0.00,,---,0.00,VWS V14.01,2013-05-26 19:41:00,
2013-05-26 15:56:00,71.8,44.8,30.18,WNW,303,1.0,5.0,38,0.00,,---,0.00,VWS V14.01,2013-05-26 19:56:00,
2013-05-26 16:00:00,71.8,45.5,30.18,WNW,300,0.0,5.0,39,0.00,,---,0.00,VWS V15.00,2013-05-26 20:00:00,
2013-05-26 16:11:00,72.1,45.1,30.18,NNE,14,0.0,5.0,38,0.00,,---,0.00,VWS V14.01,2013-05-26 20:11:00,
2013-05-26 16:26:00,71.8,44.8,30.18,NE,36,1.0,6.0,38,0.00,,---,0.00,VWS V14.01,2013-05-26 20:26:00,
2013-05-26 16:30:00,71.8,44.8,30.18,NE,53,0.0,6.0,38,0.00,,---,0.00,VWS V15.00,2013-05-26 20:30:00,
2013-05-26 16:41:00,71.9,46.3,30.17,WSW,254,0.0,5.0,40,0.00,,---,0.00,VWS V14.01,2013-05-26 20:41:00,
2013-05-26 16:56:00,71.9,45.6,30.17,NNE,13,0.0,7.0,39,0.00,,---,0.00,VWS V14.01,2013-05-26 20:56:00,
2013-05-26 17:00:00,71.9,45.6,30.18,North,5,0.0,7.0,39,0.00,,---,0.00,VWS V15.00,2013-05-26 21:00:00,
2013-05-26 17:11:00,71.7,46.1,30.17,WNW,290,0.0,3.0,40,0.00,,---,0.00,VWS V14.01,2013-05-26 21:11:00,
2013-05-26 17:26:00,71.7,44.1,30.17,NE,41,0.0,3.0,37,0.00,,---,0.00,VWS V14.01,2013-05-26 21:26:00,
2013-05-26 17:30:00,71.7,44.8,30.17,NNW,344,0.0,3.0,38,0.00,,---,0.00,VWS V15.00,2013-05-26 21:30:00,
2013-05-26 17:41:00,71.8,45.5,30.17,NE,56,0.0,7.0,39,0.00,,---,0.00,VWS V14.01,2013-05-26 21:41:00,
2013-05-26 17:56:00,71.6,43.3,30.17,North,5,0.0,7.0,36,0.00,,---,0.00,VWS V14.01,2013-05-26 21:56:00,
2013-05-26 18:00:00,71.5,43.9,30.17,North,5,0.0,7.0,37,0.00,,---,0.00,VWS V15.00,2013-05-26 22:00:00,
2013-05-26 18:11:00,71.6,44.0,30.17,ENE,59,0.0,3.0,37,0.00,,---,0.00,VWS V14.01,2013-05-26 22:11:00,
2013-05-26 18:26:00,71.5,43.9,30.17,North,5,0.0,4.0,37,0.00,,---,0.00,VWS V14.01,2013-05-26 22:26:00,
2013-05-26 18:30:00,71.5,43.9,30.18,NE,52,2.0,5.0,37,0.00,,---,0.00,VWS V15.00,2013-05-26 22:30:00,
2013-05-26 18:41:00,71.3,43.7,30.18,NNE,22,0.0,6.0,37,0.00,,---,0.00,VWS V14.01,2013-05-26 22:41:00,
2013-05-26 18:56:00,70.9,44.0,30.18,ENE,59,0.0,6.0,38,0.00,,---,0.00,VWS V14.01,2013-05-26 22:56:00,
2013-05-26 19:00:00,70.8,43.3,30.18,NE,53,0.0,6.0,37,0.00,,---,0.00,VWS V15.00,2013-05-26 23:00:00,
2013-05-26 19:11:00,70.5,43.7,30.18,NNE,23,0.0,3.0,38,0.00,,---,0.00,VWS V14.01,2013-05-26 23:11:00,
2013-05-26 19:26:00,69.9,43.2,30.18,North,349,0.0,3.0,38,0.00,,---,0.00,VWS V14.01,2013-05-26 23:26:00,
2013-05-26 19:30:00,69.7,43.0,30.18,North,349,0.0,3.0,38,0.00,,---,0.00,VWS V15.00,2013-05-26 23:30:00,
2013-05-26 19:41:00,69.4,43.4,30.19,North,351,0.0,3.0,39,0.00,,---,0.00,VWS V14.01,2013-05-26 23:41:00,
2013-05-26 19:56:00,68.9,43.6,30.19,North,351,0.0,3.0,40,0.00,,---,0.00,VWS V14.01,2013-05-26 23:56:00,
2013-05-26 20:00:00,68.6,44.0,30.19,North,350,0.0,3.0,41,0.00,,---,0.00,VWS V15.00,2013-05-27 00:00:00,
2013-05-26 20:11:00,67.6,44.3,30.20,North,350,0.0,0.0,43,0.00,,---,0.00,VWS V14.01,2013-05-27 00:11:00,
2013-05-26 20:26:00,66.1,44.2,30.20,North,350,0.0,0.0,45,0.00,,---,0.00,VWS V14.01,2013-05-27 00:26:00,
2013-05-26 20:30:00,65.7,44.9,30.20,North,351,0.0,0.0,47,0.00,,---,0.00,VWS V15.00,2013-05-27 00:30:00,
2013-05-26 20:41:00,64.6,45.6,30.21,North,350,0.0,0.0,50,0.00,,---,0.00,VWS V14.01,2013-05-27 00:41:00,
2013-05-26 20:56:00,63.2,45.3,30.21,North,351,0.0,0.0,52,0.00,,---,0.00,VWS V14.01,2013-05-27 00:56:00,
2013-05-26 21:00:00,62.9,45.5,30.21,North,350,0.0,0.0,53,0.00,,---,0.00,VWS V15.00,2013-05-27 01:00:00,
2013-05-26 21:11:00,62.0,45.2,30.22,North,351,0.0,0.0,54,0.00,,---,0.00,VWS V14.01,2013-05-27 01:11:00,
2013-05-26 21:26:00,60.8,44.5,30.23,North,351,0.0,0.0,55,0.00,,---,0.00,VWS V14.01,2013-05-27 01:26:00,
2013-05-26 21:30:00,60.5,44.7,30.23,North,351,0.0,0.0,56,0.00,,---,0.00,VWS V15.00,2013-05-27 01:30:00,
2013-05-26 21:41:00,59.8,45.0,30.23,North,351,0.0,0.0,58,0.00,,---,0.00,VWS V14.01,2013-05-27 01:41:00,
2013-05-26 21:56:00,59.0,45.6,30.24,North,351,0.0,0.0,61,0.00,,---,0.00,VWS V14.01,2013-05-27 01:56:00,
2013-05-26 22:00:00,58.6,45.2,30.24,North,351,0.0,0.0,61,0.00,,---,0.00,VWS V15.00,2013-05-27 02:00:00,
2013-05-26 22:11:00,58.0,45.5,30.25,North,351,0.0,0.0,63,0.00,,---,0.00,VWS V14.01,2013-05-27 02:11:00,
2013-05-26 22:26:00,57.5,45.4,30.25,North,351,0.0,0.0,64,0.00,,---,0.00,VWS V14.01,2013-05-27 02:26:00,
2013-05-26 22:30:00,57.3,45.2,30.25,North,351,0.0,0.0,64,0.00,,---,0.00,VWS V15.00,2013-05-27 02:30:00,
2013-05-26 22:41:00,56.9,45.7,30.25,North,351,0.0,0.0,66,0.00,,---,0.00,VWS V14.01,2013-05-27 02:41:00,
2013-05-26 22:56:00,56.5,45.3,30.25,North,351,0.0,0.0,66,0.00,,---,0.00,VWS V14.01,2013-05-27 02:56:00,
2013-05-26 23:00:00,56.4,45.6,30.25,North,351,0.0,0.0,67,0.00,,---,0.00,VWS V15.00,2013-05-27 03:00:00,
2013-05-26 23:11:00,56.1,45.7,30.26,North,350,0.0,0.0,68,0.00,,---,0.00,VWS V14.01,2013-05-27 03:11:00,
2013-05-26 23:26:00,55.6,45.6,30.26,North,351,0.0,0.0,69,0.00,,---,0.00,VWS V14.01,2013-05-27 03:26:00,
2013-05-26 23:30:00,55.6,45.6,30.26,North,351,0.0,0.0,69,0.00,,---,0.00,VWS V15.00,2013-05-27 03:30:00,
2013-05-26 23:41:00,55.3,45.7,30.26,North,351,0.0,0.0,70,0.00,,---,0.00,VWS V14.01,2013-05-27 03:41:00,
2013-05-26 23:56:00,55.0,45.8,30.26,North,351,0.0,0.0,71,0.00,,---,0.00,VWS V14.01,2013-05-27 03:56:00,